SVA1246 OERK-OEDM

Flight info

Callsign SVA1246
Flight time N/A
Altitude 24000
Route KUNLO V62 DAW
Aircraft B772/H-SDE2E3FGHIJ5LORVWXY/LB1D1

Departure

Time 2026-05-07 14:35
Airport King Khalid International Airport (OERK)

Arrival

Time N/A
Airport Dawadmi Domestic Airport (OEDM)
Time Latitude Longitude Altitude Speed Heading
2026-05-07 14:29 24.95014 46.71411 2040 ft 34 kts 329°
2026-05-07 14:29 24.95212 46.71287 2044 ft 32 kts 329°
2026-05-07 14:29 24.95262 46.71254 2038 ft 0 kts 329°
2026-05-07 14:32 24.95267 46.71250 2036 ft 1 kts 329°
2026-05-07 14:32 24.95289 46.71237 2036 ft 9 kts 330°
2026-05-07 14:32 24.95381 46.71181 2035 ft 21 kts 332°
2026-05-07 14:32 24.95517 46.71093 2035 ft 23 kts 325°
2026-05-07 14:33 24.95655 46.71002 2040 ft 23 kts 330°
2026-05-07 14:33 24.95795 46.70916 2035 ft 23 kts 329°
2026-05-07 14:33 24.95929 46.70829 2043 ft 23 kts 329°
2026-05-07 14:33 24.96068 46.70741 2039 ft 23 kts 330°
2026-05-07 14:34 24.96208 46.70654 2042 ft 23 kts 330°
2026-05-07 14:34 24.96348 46.70567 2044 ft 23 kts 329°
2026-05-07 14:34 24.96474 46.70608 2043 ft 23 kts 60°
2026-05-07 14:34 24.96532 46.70776 2040 ft 30 kts 92°
2026-05-07 14:35 24.96393 46.71021 2044 ft 44 kts 146°
2026-05-07 14:35 24.95826 46.71379 2040 ft 144 kts 150°
2026-05-07 14:35 24.94713 46.72081 2312 ft 203 kts 150°
2026-05-07 14:35 24.93494 46.72763 3694 ft 198 kts 152°
2026-05-07 14:36 24.92256 46.73532 4932 ft 209 kts 150°
2026-05-07 14:36 24.91031 46.74434 6004 ft 223 kts 130°
2026-05-07 14:36 24.90278 46.76008 6310 ft 246 kts 109°
2026-05-07 14:36 24.89421 46.77747 6528 ft 277 kts 134°
2026-05-07 14:37 24.87710 46.78826 7074 ft 293 kts 169°
2026-05-07 14:37 24.84002 46.77500 8762 ft 296 kts 232°
2026-05-07 14:37 24.83116 46.75502 9551 ft 291 kts 262°
2026-05-07 14:38 24.82999 46.73286 10077 ft 292 kts 264°
2026-05-07 14:38 24.82364 46.71164 10877 ft 293 kts 246°
2026-05-07 14:38 24.81495 46.69141 11860 ft 292 kts 247°
2026-05-07 14:38 24.80656 46.67070 12592 ft 304 kts 248°
2026-05-07 14:39 24.79783 46.64854 13072 ft 323 kts 248°
2026-05-07 14:39 24.78883 46.62549 13886 ft 332 kts 248°
2026-05-07 14:39 24.77964 46.60184 14696 ft 340 kts 248°
2026-05-07 14:39 24.77026 46.57778 15642 ft 343 kts 248°
2026-05-07 14:40 24.76089 46.55372 16757 ft 340 kts 248°
2026-05-07 14:40 24.75159 46.52992 17866 ft 337 kts 248°
2026-05-07 14:40 24.74239 46.50624 18856 ft 337 kts 248°
2026-05-07 14:40 24.73313 46.48246 19630 ft 339 kts 247°
2026-05-07 14:41 24.72392 46.45883 19980 ft 338 kts 248°
2026-05-07 14:41 24.71462 46.43500 19966 ft 339 kts 247°
2026-05-07 14:41 24.70534 46.41124 19954 ft 337 kts 247°
2026-05-07 14:41 24.69609 46.38752 19970 ft 339 kts 247°
2026-05-07 14:42 24.68655 46.36309 20323 ft 354 kts 247°
2026-05-07 14:42 24.67654 46.33749 20511 ft 376 kts 247°
2026-05-07 14:42 24.66591 46.31032 20638 ft 397 kts 247°
2026-05-07 14:42 24.65469 46.28174 20776 ft 416 kts 247°
2026-05-07 14:43 24.64302 46.25198 20895 ft 432 kts 247°
2026-05-07 14:43 24.63094 46.22118 21089 ft 444 kts 247°
2026-05-07 14:43 24.61860 46.18970 21360 ft 453 kts 247°
2026-05-07 14:43 24.60605 46.15776 21776 ft 457 kts 247°
2026-05-07 14:44 24.59346 46.12573 21988 ft 457 kts 247°
2026-05-07 14:44 24.58087 46.09370 21961 ft 455 kts 247°
2026-05-07 14:44 24.56829 46.06176 21964 ft 456 kts 246°
2026-05-07 14:44 24.55566 46.02973 21960 ft 457 kts 246°
2026-05-07 14:45 24.54302 45.99767 21963 ft 457 kts 246°
2026-05-07 14:45 24.53038 45.96564 21966 ft 457 kts 246°
2026-05-07 14:45 24.51776 45.93365 21964 ft 457 kts 246°
2026-05-07 14:45 24.50518 45.90161 21963 ft 454 kts 247°
2026-05-07 14:46 24.49351 45.87033 21895 ft 428 kts 248°
2026-05-07 14:46 24.48249 45.84121 21106 ft 404 kts 247°
2026-05-07 14:46 24.47130 45.81336 19461 ft 396 kts 246°
2026-05-07 14:46 24.45988 45.78604 17759 ft 390 kts 246°
2026-05-07 14:47 24.44911 45.75933 16413 ft 375 kts 251°
2026-05-07 14:47 24.44492 45.73205 15484 ft 353 kts 271°
2026-05-07 14:47 24.44842 45.70698 15189 ft 321 kts 285°
2026-05-07 14:47 24.45644 45.68528 14976 ft 294 kts 297°
2026-05-07 14:48 24.46869 45.66860 14968 ft 282 kts 321°
2026-05-07 14:48 24.48680 45.65869 15015 ft 308 kts 342°
2026-05-07 14:48 24.50918 45.65668 15032 ft 342 kts
2026-05-07 14:48 24.53292 45.66471 15064 ft 375 kts 26°
2026-05-07 14:49 24.55533 45.68144 15072 ft 402 kts 40°
2026-05-07 14:49 24.57476 45.70450 15086 ft 424 kts 50°
2026-05-07 14:49 24.59290 45.73122 15075 ft 435 kts 54°
2026-05-07 14:49 24.61026 45.75845 15075 ft 436 kts 54°
2026-05-07 14:50 24.62773 45.78575 15075 ft 436 kts 53°
2026-05-07 14:50 24.64551 45.81275 15070 ft 437 kts 53°
2026-05-07 14:50 24.66365 45.83953 15067 ft 436 kts 52°
2026-05-07 14:50 24.68204 45.86611 15056 ft 436 kts 51°
2026-05-07 14:51 24.70053 45.89249 15064 ft 436 kts 51°
2026-05-07 14:51 24.71911 45.91882 15074 ft 436 kts 51°
2026-05-07 14:51 24.73769 45.94510 14932 ft 433 kts 51°
2026-05-07 14:51 24.75609 45.97112 14960 ft 432 kts 51°
2026-05-07 14:52 24.77467 45.99745 14969 ft 436 kts 51°
2026-05-07 14:52 24.79304 46.02352 14975 ft 437 kts 51°
2026-05-07 14:52 24.81165 46.04992 14959 ft 436 kts 51°
2026-05-07 14:52 24.83021 46.07630 14963 ft 435 kts 51°
2026-05-07 14:53 24.84873 46.10269 14963 ft 435 kts 51°
2026-05-07 14:53 24.86721 46.12897 14973 ft 434 kts 51°
2026-05-07 14:53 24.88572 46.15532 14940 ft 436 kts 51°
2026-05-07 14:53 24.90434 46.18183 14486 ft 437 kts 51°
2026-05-07 14:54 24.92275 46.20809 13910 ft 430 kts 51°
2026-05-07 14:54 24.94083 46.23393 13340 ft 423 kts 51°
2026-05-07 14:54 24.95868 46.25943 12761 ft 416 kts 51°
2026-05-07 14:54 24.97622 46.28448 12228 ft 410 kts 51°
2026-05-07 14:55 24.99356 46.30927 11677 ft 405 kts 51°
2026-05-07 14:55 25.01066 46.33368 11165 ft 399 kts 51°
2026-05-07 14:55 25.02756 46.35783 10620 ft 395 kts 51°
2026-05-07 14:55 25.04418 46.38162 10098 ft 389 kts 51°
2026-05-07 14:56 25.06053 46.40503 9577 ft 383 kts 51°
2026-05-07 14:56 25.07666 46.42814 9083 ft 376 kts 51°
2026-05-07 14:56 25.09227 46.45050 8552 ft 362 kts 51°
2026-05-07 14:56 25.10714 46.47180 8090 ft 344 kts 51°
2026-05-07 14:57 25.12154 46.49245 7625 ft 328 kts 51°
2026-05-07 14:57 25.13483 46.51158 7174 ft 301 kts 51°
2026-05-07 14:57 25.14685 46.52963 6751 ft 285 kts 58°
2026-05-07 14:57 25.15240 46.54974 6350 ft 268 kts 88°
2026-05-07 14:58 25.14837 46.56904 5976 ft 253 kts 119°
2026-05-07 14:58 25.13665 46.58226 5666 ft 234 kts 153°
2026-05-07 14:58 25.12178 46.58745 5360 ft 218 kts 167°
2026-05-07 14:58 25.10777 46.59204 5126 ft 202 kts 160°
2026-05-07 14:59 25.09525 46.59772 4829 ft 187 kts 157°
2026-05-07 14:59 25.08399 46.60350 4582 ft 169 kts 153°
2026-05-07 14:59 25.07429 46.60928 4363 ft 151 kts 150°
2026-05-07 14:59 25.06512 46.61503 4186 ft 153 kts 149°
2026-05-07 15:00 25.05594 46.62085 3978 ft 151 kts 150°
2026-05-07 15:00 25.04682 46.62666 3783 ft 152 kts 150°
2026-05-07 15:00 25.03772 46.63246 3570 ft 151 kts 150°
2026-05-07 15:00 25.02864 46.63821 3384 ft 151 kts 150°
2026-05-07 15:01 25.01957 46.64398 3180 ft 150 kts 150°
2026-05-07 15:01 25.01053 46.64973 2983 ft 150 kts 150°
2026-05-07 15:01 25.00155 46.65545 2778 ft 148 kts 150°
2026-05-07 15:01 24.99278 46.66111 2573 ft 148 kts 149°
2026-05-07 15:02 24.98388 46.66673 2354 ft 147 kts 150°
2026-05-07 15:02 24.97506 46.67228 2146 ft 145 kts 150°
2026-05-07 15:02 24.96642 46.67778 2042 ft 137 kts 150°
2026-05-07 15:02 24.95925 46.68229 2041 ft 95 kts 150°
2026-05-07 15:03 24.95491 46.68503 2040 ft 60 kts 150°
2026-05-07 15:03 24.95260 46.68650 2042 ft 55 kts 150°
2026-05-07 15:03 24.95013 46.68861 2042 ft 37 kts 127°
2026-05-07 15:03 24.94981 46.69096 2037 ft 21 kts 72°
2026-05-07 15:04 24.94915 46.69213 2037 ft 20 kts 153°
2026-05-07 15:04 24.94795 46.69286 2043 ft 20 kts 150°
2026-05-07 15:04 24.94675 46.69362 2044 ft 20 kts 149°
2026-05-07 15:04 24.94556 46.69437 2038 ft 19 kts 150°
2026-05-07 15:05 24.94533 46.69557 2041 ft 18 kts 62°
2026-05-07 15:05 24.94596 46.69679 2038 ft 18 kts 59°
2026-05-07 15:05 24.94660 46.69802 2045 ft 20 kts 60°
2026-05-07 15:05 24.94759 46.69988 2035 ft 30 kts 60°
2026-05-07 15:06 24.94863 46.70187 2036 ft 30 kts 60°
2026-05-07 15:06 24.94967 46.70385 2043 ft 30 kts 59°
2026-05-07 15:06 24.95072 46.70585 2044 ft 30 kts 60°
2026-05-07 15:06 24.95177 46.70784 2044 ft 30 kts 60°
2026-05-07 15:07 24.95276 46.70974 2043 ft 19 kts 59°
2026-05-07 15:07 24.95363 46.71006 2042 ft 11 kts 323°
2026-05-07 15:07 24.95357 46.70944 2045 ft 9 kts 243°
2026-05-07 15:07 24.95345 46.70920 2043 ft 0 kts 240°